Dewpoint
6 7 7 6 5 10 7 4 3 -2 4 7 13 14 19 18 16 15 15 17 27 29 32 31 32 32 33 34 34 34 32 32 32 34 34 36 37 36 36 37 39 41 40 39
6 7 4 3 4 7 7 5 2 3 5 11 15 20 19 19 16 15 15 18 28 30 32 32 33 33 33 34 34 34 31 33 31 33 33 33 35 33 33 34 36 39 39 40
12 7 4 6 4 4 3 4 4 5 7 14 19 20 20 19 17 16 15 21 29 32 32 32 34 33 33 34 33 35 31 32 31 32 32 32 32 32 31 32 33 35 38 39
12 8 6 9 7 6 6 10 12 12 15 19 21 22 21 18 18 16 16 25 29 33 33 32 33 34 34 34 33 35 31 31 31 32 32 32 32 31 31 31 31 33 36 37
11 7 8 4 5 1 0 5 14 15 18 22 22 19 11 17 19 16 17 28 30 33 31 32 34 35 33 32 33 34 31 31 31 32 32 31 31 31 30 30 30 30 32 36
9 2 4 7 10 13 13 8 15 19 21 22 20 14 14 19 19 16 19 28 31 31 31 33 34 34 34 32 33 35 32 31 31 32 32 32 31 31 31 30 30 29 29 30
16 7 10 12 13 16 -7 -5 17 21 23 22 18 18 19 21 16 17 21 28 30 30 31 33 35 34 33 32 33 35 32 32 31 32 32 33 32 31 31 31 30 30 29 29
11 4 7 13 16 5 6 18 21 23 23 20 20 21 20 17 16 17 27 28 29 31 31 34 35 35 33 34 34 34 32 32 31 30 31 32 32 33 32 31 29 29 29 30
18 15 13 14 13 18 18 19 22 24 21 21 20 20 19 17 16 18 28 27 29 31 32 34 35 35 34 35 35 33 32 31 31 30 28 30 32 32 33 31 30 27 27 30
10 9 11 15 18 19 21 22 24 20 21 22 20 18 17 16 16 18 27 27 29 31 32 33 35 36 35 33 35 33 32 31 31 30 29 28 29 33 33 33 31 30 29 31
8 10 12 15 16 21 23 24 21 21 22 20 18 17 16 17 17 21 27 28 29 32 32 33 35 35 35 34 37 34 32 31 31 30 30 29 29 32 33 34 34 32 31 32
7 11 12 13 19 24 25 21 21 21 20 20 18 17 17 17 18 26 27 28 29 31 33 34 34 36 34 35 37 35 33 31 31 30 30 29 28 28 33 36 36 36 36 33
11 14 17 19 22 25 22 21 21 20 20 19 18 17 17 18 19 29 28 29 30 31 34 33 34 35 36 37 37 36 33 32 30 31 28 28 28 28 27 30 33 36 36 35
20 20 21 22 23 24 21 21 24 22 22 20 18 18 18 19 21 27 28 29 30 31 33 33 34 35 37 37 37 36 34 35 31 30 30 28 28 27 28 29 28 29 33 34
18 16 20 23 25 21 20 22 22 22 22 20 19 18 19 20 22 26 28 30 30 31 32 33 33 35 37 37 37 37 34 34 31 30 30 30 28 28 28 29 30 30 29 31
19 22 24 24 21 19 20 21 22 23 23 21 19 19 19 20 22 27 28 30 31 31 32 33 33 35 37 37 38 37 35 35 33 30 30 29 28 28 28 28 29 30 31 30
22 23 23 21 18 18 20 22 23 24 23 20 19 19 20 21 23 28 28 29 30 31 33 33 33 36 36 38 38 36 35 33 32 30 30 29 28 28 28 28 28 29 30 32
18 21 22 20 18 19 22 24 25 25 23 20 20 20 21 22 23 26 29 28 31 31 32 33 35 36 36 38 37 36 34 32 31 31 30 30 28 28 28 28 28 28 29 31
22 23 21 18 19 20 23 25 26 26 22 21 21 21 22 23 25 27 29 29 30 30 31 32 35 35 36 38 38 36 34 32 31 30 29 29 28 28 28 28 28 29 29 30
22 23 19 19 20 23 24 26 27 25 22 21 22 22 23 24 25 28 29 29 31 32 32 33 33 35 37 38 38 35 33 32 30 30 30 28 27 27 28 29 29 29 29 29
22 21 19 19 21 24 26 27 27 24 22 23 22 23 23 24 26 28 29 30 32 32 33 33 34 36 37 38 36 34 33 32 31 29 28 27 27 27 28 28 29 29 29 29
21 20 20 20 22 25 26 27 27 24 22 23 23 24 24 25 26 27 29 32 32 33 32 32 34 36 38 38 35 33 32 33 31 30 29 28 27 27 28 28 28 29 29 29
21 21 21 22 23 25 27 28 27 24 22 22 23 24 24 25 26 26 25 32 31 31 31 32 34 35 38 37 35 33 32 31 31 30 30 29 28 28 28 28 28 29 29 29
21 21 21 23 24 26 26 28 28 25 23 23 24 25 25 26 26 28 29 32 32 31 31 32 33 34 36 36 36 32 31 31 31 31 30 31 29 29 28 28 28 29 29 29
20 20 21 23 24 25 26 28 28 25 22 23 24 25 26 27 27 28 29 30 31 31 30 32 32 33 33 34 36 33 32 31 32 31 30 30 29 29 29 29 29 29 29 29
19 20 21 23 23 25 27 29 28 24 24 23 24 25 26 28 28 28 29 31 30 30 30 31 32 32 32 34 35 34 32 32 31 31 31 30 30 30 29 29 29 29 28 28
20 24 22 23 24 26 28 28 27 24 25 23 24 26 27 27 28 28 29 28 30 30 30 30 31 32 32 33 34 35 34 32 31 32 31 31 31 31 30 30 30 30 29 29
Lifted_Index
7 8 9 9 9 9 9 9 9 9 11 15 17 17 15 13 12 11 9 9 9 10 11 13 14 14 14 14 13 13 13 13 13 12 13 13 12 12 11 10 10 9 8 7
6 7 8 8 9 10 10 10 10 10 12 16 18 17 15 14 13 11 10 9 10 10 11 13 14 14 14 14 13 13 14 14 13 13 12 12 12 12 11 11 10 9 9 8
4 5 6 7 9 10 11 11 11 11 14 17 18 18 16 15 13 12 10 10 10 10 11 13 14 14 14 14 14 14 14 14 14 13 12 12 12 12 11 11 10 9 8 8
3 4 5 7 10 11 11 12 13 14 16 18 18 18 17 16 14 12 11 11 10 11 12 14 15 14 14 14 14 14 14 15 14 14 13 12 12 12 11 10 10 9 8 8
3 3 4 7 11 12 11 12 14 16 17 18 18 17 16 16 14 13 12 12 11 11 13 14 15 14 14 14 14 14 14 15 14 14 14 13 13 12 11 10 10 9 8 8
3 2 4 8 12 13 12 11 15 18 18 19 18 16 16 16 15 13 13 12 12 12 13 14 15 14 14 14 14 14 15 15 14 14 14 13 13 12 12 11 10 9 9 8
3 3 5 9 12 13 11 12 16 19 19 19 19 18 18 17 15 13 13 12 11 12 13 14 15 14 14 14 14 14 15 15 14 14 13 13 13 12 12 11 10 10 9 9
4 4 6 10 13 13 13 15 18 20 20 20 20 19 19 17 15 13 12 12 11 12 13 14 15 15 14 14 14 15 15 14 14 14 13 13 12 12 11 11 10 10 10 10
5 6 8 12 14 15 16 18 19 20 21 20 20 20 19 17 15 13 12 12 11 11 12 14 15 15 14 14 14 14 14 14 14 13 13 12 11 11 11 10 10 10 10 10
6 8 10 12 15 17 18 19 20 21 21 21 20 20 20 18 15 13 12 12 11 11 12 14 15 15 15 14 14 14 14 13 13 13 13 12 11 11 11 11 11 10 10 10
7 8 10 12 15 17 18 20 21 21 21 21 21 21 20 19 16 14 13 12 12 11 12 13 15 15 15 15 14 14 13 13 13 13 13 12 11 11 11 11 11 11 11 11
7 9 11 13 16 17 18 20 21 21 21 21 21 21 21 19 17 14 13 13 12 11 12 13 15 15 15 15 14 14 13 13 13 13 12 12 11 10 11 12 12 12 12 12
9 10 12 14 16 18 19 20 21 21 22 21 21 21 21 20 18 15 14 13 12 12 12 13 14 15 15 15 14 14 13 13 13 13 12 11 10 10 10 11 11 12 12 12
11 12 13 15 16 18 19 20 21 22 22 22 22 22 21 20 18 16 15 14 13 12 12 12 14 15 15 15 15 14 14 13 13 13 12 12 11 10 10 10 11 11 12 12
12 13 14 16 17 18 19 20 21 21 22 22 22 22 21 20 19 17 16 14 13 12 12 12 13 14 15 15 15 14 14 14 13 13 12 12 11 10 10 10 11 11 12 12
11 12 14 15 16 18 19 20 20 21 21 22 22 22 21 21 19 18 17 15 13 12 12 12 13 14 15 15 15 15 14 14 13 13 12 12 11 10 10 10 11 11 12 12
11 12 14 15 16 17 18 19 20 21 22 22 22 22 22 21 20 18 17 16 14 13 12 12 12 13 14 15 15 15 14 14 13 13 12 12 11 10 10 10 11 11 12 12
14 14 15 16 17 18 19 20 21 21 22 22 22 22 22 21 20 19 17 16 15 13 13 12 12 12 13 15 16 15 15 14 14 13 12 12 11 11 10 10 11 11 12 12
15 16 17 18 18 19 19 20 21 22 22 22 22 22 22 21 20 19 18 17 15 14 13 13 12 12 12 14 15 16 15 14 14 13 13 12 12 11 11 10 11 11 12 12
15 16 17 18 19 20 20 20 21 22 22 22 22 22 22 21 20 19 18 17 16 15 14 13 13 12 12 13 15 16 15 15 14 14 13 13 12 12 11 11 11 11 12 12
14 16 17 18 19 20 20 21 21 22 22 23 23 22 22 22 21 20 19 17 17 17 16 14 13 12 11 12 14 15 16 15 15 14 14 13 13 12 12 11 11 11 11 11
14 15 17 18 19 20 20 21 22 22 22 23 23 23 22 22 21 20 19 18 18 17 17 15 14 12 12 11 13 14 15 15 15 14 14 14 13 13 13 12 11 11 11 11
15 16 17 18 19 20 20 21 22 22 23 23 23 23 23 22 21 20 19 19 18 18 17 16 15 14 12 11 12 13 15 15 15 15 15 14 14 14 13 13 13 12 12 12
15 17 18 19 19 20 20 21 22 22 23 23 23 24 24 23 22 21 20 19 19 18 18 17 16 15 13 12 11 12 13 15 15 15 15 15 15 14 14 14 14 13 13 12
16 17 18 19 19 19 20 21 21 22 23 23 23 24 24 24 23 21 20 19 19 19 18 18 17 16 14 13 12 11 12 14 15 15 15 15 15 15 15 14 14 14 14 13
16 17 18 19 19 20 20 21 21 22 22 23 23 24 24 24 23 22 20 20 19 19 18 18 17 16 15 14 13 12 12 13 15 15 15 15 15 15 15 15 15 14 14 14
17 17 18 19 19 20 21 21 21 21 22 23 23 23 24 24 24 22 21 20 19 19 19 18 18 17 16 15 14 13 12 13 14 15 15 15 15 15 15 15 15 15 15 15